PRAETORIAN SDA_611

Last updated on Thu Aug 20 2026 00:03:39 GMT+0000 (Coordinated Universal Time)

1 65574U 25203K 26231.20031827 .00000365 00000+0 32146-3 0 9998 2 65574 81.3025 312.6509 0006242 43.9734 316.1918 13.83313560 47393
UTC large
Height (km)
Speed (km/s)
/
Latitude / Longitude
Inclination (degrees)
Orbital Period (minutes)
Azimuth
Elevation
Range (km)
Doppler Factor

Next 0 passes for location: London (51.5072 / 0.1276)

No passes found over London.
PRAETORIAN SDA_611